Weather History for Pittsfield, MA

Change the Weather History Date:

Tuesday, April 30, 2013

  Actual Average Record
Temperature  
Mean Temperature 58 °F 50 °F  
Max Temperature 70 °F 61 °F 79 °F (1936)
Min Temperature 45 °F 39 °F 26 °F (1950)
Degree Days  
Heating Degree Days 7 15  
Month to date heating degree days 642 628  
Since 1 July heating degree days 6636 7035  
Cooling Degree Days 0 0  
Month to date cooling degree days 0 2  
Year to date cooling degree days 0 2  
Growing Degree Days 8 (Base 50)    
Moisture  
Dew Point 32 °F    
Average Humidity 54    
Maximum Humidity 86    
Minimum Humidity 22    
Precipitation  
Precipitation 0.00 in 0.10 in 0.91 in (2014)
Month to date precipitation 2.47 3.86  
Year to date precipitation 7.89 12.83  
Sea Level Pressure  
Sea Level Pressure 30.22 in    
Wind  
Wind Speed 3 mph (ESE)    
Max Wind Speed 14 mph    
Max Gust Speed 20 mph    
Visibility 10 miles    
Events      
T = Trace of Precipitation, MM = Missing Value Source: NWS Daily Summary

Daily Weather History Graph

Daily Weather History Graph

Search for Another Location

Airport:

Trip Planner

Search our weather history database for the weather conditions in past years. The results will help you decide how hot, cold, wet, or windy it might be!

Date:

Astronomy

Apr. 30, 2013 Rise Set
Actual Time 5:49 AM EDT 7:52 PM EDT
Civil Twilight 5:18 AM EDT 8:22 PM EDT
Nautical Twilight 4:41 AM EDT 9:00 PM EDT
Astronomical Twilight 4:00 AM EDT 9:41 PM EDT
Moon 12:14 AM EDT 10:13 AM EDT
Length of Visible Light 15h 04m
Length of Day
14h 02m
Waning Gibbous, 70% of the Moon is Illuminated
Apr 30
Waning Gibbous
May 2
Last Quarter
May 9
New
May 18
First Quarter
May 25
Full

Hourly Weather History & Observations

Time (EDT) Temp. Windchill Dew Point Humidity Pressure Visibility Wind Dir Wind Speed Gust Speed Precip Events Conditions
12:54 AM 46.0 °F - 42.1 °F 86% 30.19 in 10.0 mi Calm Calm - 0.00 in   Overcast
1:54 AM 46.9 °F - 37.9 °F 71% 30.19 in 10.0 mi Calm Calm - N/A   Overcast
2:54 AM 46.9 °F - 36.0 °F 66% 30.19 in 10.0 mi NE 3.5 mph - N/A   Overcast
3:54 AM 46.0 °F 44.8 °F 35.1 °F 66% 30.20 in 10.0 mi NNE 3.5 mph - N/A   Overcast
4:54 AM 46.0 °F - 37.9 °F 73% 30.21 in 10.0 mi Calm Calm - N/A   Overcast
5:54 AM 46.0 °F 44.8 °F 37.0 °F 71% 30.22 in 10.0 mi NE 3.5 mph - N/A   Overcast
6:54 AM 46.0 °F - 37.9 °F 73% 30.25 in 10.0 mi Calm Calm - N/A   Mostly Cloudy
7:54 AM 50.0 °F - 37.0 °F 61% 30.26 in 10.0 mi Calm Calm - N/A   Clear
8:54 AM 55.0 °F - 36.0 °F 49% 30.25 in 10.0 mi NNE 4.6 mph - N/A   Clear
9:54 AM 57.9 °F - 25.0 °F 28% 30.25 in 10.0 mi Calm Calm - N/A   Clear
10:54 AM 60.1 °F - 28.9 °F 31% 30.24 in 10.0 mi Calm Calm - N/A   Partly Cloudy
11:54 AM 64.0 °F - 28.9 °F 27% 30.22 in 10.0 mi Variable 3.5 mph - N/A   Clear
12:54 PM 64.9 °F - 28.9 °F 26% 30.22 in 10.0 mi Calm Calm - N/A   Clear
1:54 PM 66.9 °F - 30.9 °F 26% 30.21 in 10.0 mi Variable 5.8 mph - N/A   Clear
2:54 PM 68.0 °F - 30.9 °F 25% 30.20 in 10.0 mi SSE 8.1 mph - N/A   Clear
3:54 PM 69.1 °F - 30.0 °F 23% 30.20 in 10.0 mi SSE 9.2 mph - N/A   Scattered Clouds
4:54 PM 69.1 °F - 28.9 °F 22% 30.20 in 10.0 mi Variable 5.8 mph - N/A   Mostly Cloudy
5:54 PM 68.0 °F - 28.9 °F 23% 30.20 in 10.0 mi SE 5.8 mph - N/A   Mostly Cloudy
6:54 PM 64.9 °F - 35.1 °F 33% 30.22 in 10.0 mi WSW 5.8 mph - N/A   Clear
7:54 PM 63.0 °F - 34.0 °F 34% 30.22 in 10.0 mi Calm Calm - N/A   Clear
8:54 PM 59.0 °F - 30.0 °F 33% 30.24 in 10.0 mi South 3.5 mph - N/A   Clear
9:54 PM 57.0 °F - 27.0 °F 32% 30.25 in 10.0 mi Variable 4.6 mph - N/A   Clear
10:54 PM 54.0 °F - 26.1 °F 34% 30.27 in 10.0 mi West 3.5 mph - N/A   Clear
11:54 PM 50.0 °F - 27.0 °F 41% 30.28 in 10.0 mi East 3.5 mph - N/A   Clear